Temperature
6 6 7 7 7 7 7 7 8 8 8 8 8 8 8 8 8 8 8 8 9 9 9 9 9 9 9 9 9 9 9 9 9 10 10 10 10 10 10 10 10 9 9
6 6 6 7 7 7 7 7 7 7 7 7 7 7 7 8 8 8 8 8 8 8 8 8 9 9 9 9 9 9 9 9 9 9 9 9 9 9 9 9 9 9 9
5 6 6 6 6 6 6 6 7 7 7 7 7 7 7 7 7 7 7 7 8 8 8 8 8 8 8 9 9 9 8 8 8 8 8 8 8 8 9 9 9 9 8
5 5 5 5 6 6 6 6 6 6 7 7 7 7 7 7 7 7 7 7 7 7 7 7 7 8 8 8 8 8 8 8 8 8 8 8 8 7 8 8 8 8 8
5 5 5 5 5 5 5 6 6 6 6 6 6 6 6 6 6 6 6 6 7 7 7 7 7 7 7 7 8 8 8 8 8 7 8 8 8 7 7 7 8 8 8
5 5 5 5 5 5 5 5 5 5 6 6 6 6 6 6 6 6 6 6 6 6 6 6 7 7 7 7 7 7 7 7 7 7 7 7 7 7 7 6 7 7 7
4 4 4 4 5 5 5 5 5 5 5 5 5 5 5 5 5 6 6 6 6 6 6 6 6 6 6 7 7 7 7 7 7 7 6 6 6 6 6 6 6 6 7
4 4 4 4 4 4 4 4 5 5 5 5 5 5 5 5 5 5 6 6 6 6 6 6 6 6 6 6 6 6 6 6 6 6 6 6 6 6 6 6 5 5 5
4 4 4 4 4 4 4 4 4 5 5 5 5 5 5 5 5 5 5 5 5 5 5 5 5 5 5 5 5 5 5 5 5 5 5 5 5 5 5 5 5 5 4
3 3 3 3 4 4 4 4 4 4 4 4 4 5 5 5 5 5 5 5 5 5 5 5 5 5 5 5 5 5 5 5 5 5 5 5 5 4 5 5 5 5 4
3 3 3 3 3 3 3 3 4 4 4 4 4 4 4 4 4 4 4 4 4 4 4 4 4 4 4 4 4 4 4 4 4 4 4 4 4 4 4 4 4 4 4
3 3 3 3 3 3 3 3 3 4 4 4 4 4 4 4 4 4 4 4 4 4 4 4 4 4 4 4 4 4 4 4 4 3 3 4 4 4 4 4 4 4 4
2 2 2 3 3 3 3 3 3 3 3 3 3 3 3 3 4 4 3 3 3 4 4 3 3 3 3 3 3 3 3 3 3 3 3 3 3 3 3 3 3 3 3
2 2 2 2 2 2 2 3 3 3 3 3 3 3 3 3 3 3 3 3 3 3 3 3 3 3 3 3 3 3 3 2 2 2 2 2 3 3 3 3 2 3 3
2 2 2 2 2 2 2 2 3 3 3 3 3 3 3 3 3 3 3 3 3 3 3 3 3 3 2 2 2 2 2 2 2 2 2 2 2 2 2 2 2 2 2
1 1 1 1 2 2 2 2 2 2 2 2 2 2 2 2 2 2 2 2 2 2 2 2 2 2 2 2 2 2 1 1 1 1 2 2 2 2 2 1 1 1 2
1 1 1 1 1 1 1 1 2 2 2 2 2 2 2 2 2 2 2 2 2 2 2 2 2 2 2 1 1 1 1 1 1 1 1 1 1 1 1 1 1 1 1
1 1 1 1 1 1 1 1 1 1 1 2 2 2 2 2 2 2 1 1 1 1 1 1 1 1 1 1 1 1 1 1 0 0 0 0 0 0 1 1 1 1 1
1 1 1 1 1 1 1 1 1 1 1 1 1 1 1 1 1 1 1 1 1 1 1 1 1 1 1 0 0 0 -0 -0 -0 -0 0 0 -0 -0 -0 0 0 1 1
0 0 0 1 1 1 1 1 1 1 1 1 1 1 1 1 1 1 1 1 0 0 0 0 0 0 0 -0 -0 -0 -0 -1 -1 -1 -1 -1 -1 -1 -1 -0 -0 -0 0
-0 -0 0 0 0 0 0 0 1 1 0 0 0 1 1 1 0 0 0 0 -0 -0 -0 -0 -0 -0 -1 -1 -1 -1 -1 -1 -1 -1 -1 -1 -1 -1 -1 -1 -1 -1 -1
-1 -1 -0 -0 -0 -0 -0 -0 0 0 0 0 0 0 0 0 -0 -0 -0 -0 -1 -1 -1 -1 -1 -1 -1 -1 -1 -1 -1 -2 -2 -2 -2 -2 -2 -2 -1 -1 -1 -1 -1
-1 -1 -1 -1 -1 -1 -1 -1 -0 -0 -0 -0 -0 -0 -0 -0 -1 -1 -1 -1 -1 -1 -2 -2 -2 -2 -2 -2 -2 -2 -2 -2 -2 -2 -2 -2 -2 -2 -2 -2 -2 -2 -2
-1 -1 -1 -1 -1 -1 -1 -1 -1 -1 -1 -1 -1 -1 -1 -1 -1 -1 -2 -2 -2 -2 -2 -2 -2 -2 -2 -2 -2 -2 -2 -2 -2 -3 -3 -3 -2 -2 -2 -2 -2 -2 -2
-2 -2 -2 -2 -2 -2 -2 -2 -2 -2 -1 -1 -1 -1 -1 -2 -2 -2 -2 -2 -2 -3 -3 -3 -3 -3 -3 -3 -3 -3 -3 -3 -3 -3 -3 -3 -3 -3 -3 -3 -3 -3 -3
-2 -2 -2 -2 -2 -2 -2 -2 -2 -2 -2 -2 -2 -2 -2 -2 -2 -3 -3 -3 -3 -3 -3 -3 -3 -3 -4 -4 -4 -4 -4 -4 -4 -4 -4 -4 -4 -4 -4 -4 -4 -4 -3
Wind_Speed
3 2 2 2 2 2 3 2 1 1 0 1 1 1 1 1 1 1 1 0 1 1 1 1 1 1 0 0 0 1 2 1 1 1 0 1 1 1 1 1 1 1 1
4 3 3 2 2 2 3 2 1 1 1 1 1 2 2 2 1 1 1 1 1 0 0 0 1 1 0 0 0 1 1 1 1 1 1 1 1 1 1 1 2 2 0
3 3 3 3 3 3 3 3 2 2 1 1 0 0 0 1 1 1 1 2 1 1 1 1 0 1 1 0 0 1 2 2 0 1 1 1 2 2 2 1 1 1 1
3 2 3 3 3 3 3 3 2 2 2 1 1 2 2 1 1 1 1 2 2 1 1 1 1 0 0 0 0 1 1 2 1 0 1 0 1 1 1 2 1 1 1
3 3 3 4 4 3 3 3 2 2 1 1 1 2 2 1 1 0 0 1 1 2 2 1 1 0 0 0 0 1 1 1 1 1 0 1 1 1 1 2 2 2 2
3 3 3 3 3 3 3 3 2 3 2 1 1 2 2 2 1 1 0 1 1 0 2 1 1 1 0 1 1 1 1 1 1 1 1 1 0 0 0 2 2 3 3
3 3 4 4 4 4 3 3 2 3 3 1 1 1 2 3 3 2 2 1 0 0 1 1 1 0 0 1 1 1 1 2 2 1 1 0 0 1 1 1 2 3 3
3 4 4 3 4 4 4 3 3 3 3 2 1 1 2 2 2 3 2 2 1 1 1 0 0 1 0 0 0 1 1 1 1 1 1 0 0 0 1 1 1 2 3
5 5 4 3 3 4 4 4 3 4 4 2 2 1 1 1 2 2 2 1 1 0 0 0 0 0 1 1 1 1 1 1 1 1 1 1 0 0 1 1 1 1 2
6 6 5 4 4 4 4 4 3 4 4 2 2 1 1 1 2 2 2 2 1 1 1 0 0 1 1 1 2 1 1 1 1 1 1 1 0 0 0 0 1 1 2
6 6 5 4 4 4 4 4 4 4 3 1 1 0 0 1 1 2 2 2 1 1 1 1 0 1 1 1 2 1 1 1 1 0 1 0 0 0 1 0 1 1 1
5 5 5 4 5 5 4 4 4 4 3 2 1 0 0 1 1 1 1 2 1 1 1 1 1 1 1 1 1 1 1 1 1 0 1 0 0 1 1 0 1 1 1
5 5 5 5 5 5 5 5 4 4 3 2 1 0 1 0 1 1 1 1 1 1 0 1 1 1 1 1 1 1 1 1 0 0 0 1 0 1 1 1 1 2 1
5 5 5 4 5 5 4 5 5 4 3 2 1 0 1 1 1 1 1 1 1 1 1 1 1 1 1 1 1 1 1 1 0 0 1 1 1 1 1 1 2 1 1
5 5 5 5 5 5 5 5 5 5 3 2 1 1 1 0 1 0 0 1 1 1 1 0 0 0 1 1 1 1 2 1 0 1 1 1 2 3 2 2 2 1 1
6 6 6 6 5 5 5 5 5 5 3 2 1 1 1 1 0 0 1 1 0 0 1 0 0 0 0 1 1 1 2 1 0 1 1 2 2 3 4 4 3 2 2
6 6 6 5 5 5 5 5 5 4 3 2 1 1 1 1 1 1 1 1 0 0 0 0 0 0 1 1 1 1 2 1 0 1 1 2 2 3 2 3 4 4 4
6 6 5 6 6 5 5 4 4 3 3 2 2 1 1 0 0 1 0 0 0 0 0 1 0 0 1 2 2 1 2 1 0 0 0 1 2 3 2 2 2 3 3
5 5 5 5 5 5 4 3 3 3 2 2 2 2 1 0 0 0 0 0 0 0 0 0 0 0 1 2 2 2 2 1 0 1 1 1 2 4 5 3 3 4 4
4 4 4 4 4 5 4 2 2 2 3 3 3 2 1 1 1 1 0 0 0 0 1 1 1 0 1 2 2 2 2 1 1 1 1 3 4 6 6 3 2 4 4
4 3 3 4 4 4 3 2 2 2 3 3 2 2 1 1 1 0 1 1 1 1 1 1 1 1 1 2 2 2 2 1 1 1 2 2 6 7 7 5 2 4 5
3 3 3 4 4 4 2 2 3 3 3 2 2 2 1 1 0 1 1 1 1 2 1 1 2 1 1 2 2 3 2 2 1 1 1 3 7 7 7 5 5 6 5
3 2 2 4 5 4 2 2 3 3 2 2 2 2 2 1 1 1 1 1 1 1 1 1 1 1 1 2 3 4 4 4 2 1 3 4 6 6 5 5 7 5 3
2 2 2 3 4 5 4 2 3 2 2 2 2 2 2 2 2 1 1 1 1 0 0 0 0 1 1 1 1 1 2 3 2 2 3 4 5 4 4 4 4 3 3
2 1 2 3 4 4 4 3 2 2 2 1 1 1 1 1 1 2 1 1 0 1 1 1 0 0 1 2 3 2 1 1 1 2 2 2 2 3 3 3 3 3 3
2 2 2 3 3 3 4 4 2 1 1 1 1 1 1 1 1 1 2 3 2 3 3 3 2 1 2 3 4 3 3 2 2 2 1 2 2 2 3 3 3 3 3
Wind_Direction
302 331 323 321 343 348 352 321 308 315 353 170 184 236 274 304 318 343 15 17 17 17 35 351 326 325 225 228 230 145 118 61 34 80 36 334 267 220 224 227 227 247 243
337 343 340 345 332 320 321 326 300 310 292 253 211 216 233 255 284 326 354 4 25 11 287 246 260 274 257 79 107 109 129 109 67 122 130 331 317 295 258 252 223 222 253
298 323 344 339 326 318 303 316 298 286 269 276 227 141 19 360 2 325 309 342 359 1 2 307 290 277 216 173 143 134 127 154 81 77 132 154 235 301 298 258 253 235 219
311 331 335 327 321 314 310 296 306 290 272 225 195 199 206 232 246 254 276 327 360 5 6 359 337 327 29 93 186 121 132 150 163 39 28 10 181 190 299 293 271 266 245
305 318 316 307 321 321 311 293 313 306 286 242 201 203 210 233 232 101 357 342 351 12 8 9 17 5 339 153 138 124 119 144 150 137 35 21 22 43 205 272 296 309 274
301 309 318 333 338 338 336 315 318 321 309 274 199 200 201 199 171 158 181 312 316 350 8 11 10 2 319 203 195 177 151 145 124 113 117 130 171 224 250 264 281 299 302
309 318 334 339 329 325 320 308 307 318 308 287 227 208 206 198 187 189 187 208 271 292 305 351 318 308 280 245 188 174 173 172 160 157 170 139 4 260 236 222 288 303 309
329 319 311 309 317 311 305 300 294 302 299 278 256 227 211 203 192 193 187 192 217 232 244 283 319 323 33 58 141 155 185 158 169 172 166 147 18 328 198 205 244 309 307
317 314 318 318 320 316 306 295 291 301 294 268 249 238 219 196 187 192 177 186 198 219 32 319 65 8 88 95 98 130 180 164 173 174 157 154 69 20 274 236 204 211 283
322 319 318 319 317 312 312 313 304 294 288 270 247 232 239 205 187 180 177 182 180 172 159 121 75 88 90 100 98 90 98 135 188 177 145 121 308 6 332 245 288 263 250
312 314 315 318 320 325 328 324 316 313 310 302 293 295 287 200 169 172 181 170 164 168 182 173 141 120 113 103 101 89 114 110 81 72 137 136 67 35 355 316 284 308 279
313 317 318 332 335 332 330 324 323 320 319 320 312 291 58 104 135 177 165 150 156 178 201 173 150 145 125 113 112 100 113 113 91 29 56 4 22 24 336 300 283 290 290
328 333 336 338 332 329 326 322 322 322 329 343 355 16 28 124 145 194 154 153 155 151 160 175 191 179 162 157 147 137 115 102 147 4 315 298 317 327 319 310 292 287 303
323 329 329 330 330 327 323 324 324 327 336 354 0 351 294 234 205 193 161 158 154 159 190 220 222 190 171 171 153 126 116 100 29 320 287 281 278 280 295 312 301 296 316
321 321 322 324 329 331 327 329 327 328 339 350 332 298 321 49 56 46 116 132 145 169 170 148 324 180 166 172 158 140 123 113 12 328 309 299 309 316 311 315 310 311 307
310 315 321 323 323 322 320 324 321 322 335 329 294 316 11 44 72 68 63 77 97 97 92 174 252 226 240 275 308 97 125 132 199 308 327 328 334 337 336 323 324 318 294
306 310 310 309 311 310 310 311 312 320 330 327 319 331 354 13 357 39 62 65 81 111 101 290 226 213 283 319 333 64 115 126 164 298 315 335 337 339 323 325 333 329 326
297 301 305 310 313 313 314 317 323 328 332 336 336 328 330 310 29 63 60 3 97 139 220 268 263 2 314 333 342 35 104 110 216 276 290 314 317 320 321 324 336 324 316
284 290 296 303 310 313 313 324 327 333 332 333 328 315 288 271 154 208 270 278 69 7 307 305 288 226 310 333 347 33 107 97 34 351 348 324 305 315 331 348 335 328 326
304 309 315 320 319 317 323 334 326 335 326 318 313 313 288 219 232 247 283 22 59 283 342 3 5 15 287 336 7 45 110 93 11 351 354 342 332 324 336 345 327 320 316
312 322 327 324 317 321 334 338 331 313 313 324 332 338 335 292 241 115 60 44 38 34 20 359 7 13 356 5 8 30 83 105 23 354 350 337 334 334 339 341 320 308 319
326 332 341 334 331 336 347 338 318 315 334 352 357 349 347 340 43 95 84 78 78 58 16 12 21 28 28 17 8 14 28 35 67 353 336 332 335 341 344 346 334 333 343
308 323 333 333 336 342 348 325 317 339 0 22 5 354 355 0 44 99 105 90 93 88 347 11 22 11 19 7 4 10 10 8 24 357 335 341 346 351 354 347 347 356 357
302 324 339 332 327 333 339 323 326 350 26 27 13 17 31 28 40 56 72 86 97 120 303 346 10 1 3 352 351 17 15 12 12 7 355 1 3 9 358 354 356 357 345
301 293 286 296 306 324 329 330 341 11 28 23 28 24 25 42 49 38 25 18 325 243 268 273 242 274 315 322 336 358 8 15 360 15 29 19 8 5 0 358 355 351 345
290 298 299 299 306 318 319 324 341 10 32 15 13 11 11 25 51 56 25 17 10 3 357 351 353 341 319 327 341 348 0 7 17 34 21 355 348 344 344 345 342 339 339
Height
1494 1493 1493 1492 1491 1490 1490 1490 1490 1490 1490 1490 1490 1491 1491 1491 1492 1492 1492 1492 1493 1493 1494 1494 1495 1495 1495 1496 1496 1496 1498 1499 1499 1500 1501 1502 1503 1503 1505 1506 1506 1506 1506
1491 1491 1491 1490 1488 1488 1488 1487 1488 1488 1488 1488 1489 1489 1489 1489 1489 1489 1489 1490 1490 1491 1491 1492 1492 1492 1493 1493 1493 1493 1495 1496 1497 1498 1498 1499 1501 1500 1501 1502 1503 1503 1503
1490 1490 1489 1488 1488 1487 1486 1486 1485 1486 1486 1487 1487 1487 1487 1486 1486 1486 1486 1487 1487 1488 1489 1490 1490 1490 1490 1490 1491 1492 1492 1493 1495 1496 1497 1497 1497 1497 1498 1499 1499 1500 1500
1489 1488 1487 1486 1485 1484 1484 1484 1484 1484 1484 1484 1484 1484 1483 1483 1483 1484 1484 1484 1485 1486 1487 1487 1488 1488 1488 1488 1489 1489 1490 1491 1492 1494 1494 1496 1495 1496 1495 1496 1497 1497 1497
1487 1486 1485 1485 1483 1483 1482 1481 1481 1481 1481 1481 1481 1481 1480 1481 1481 1481 1482 1482 1482 1483 1484 1485 1485 1486 1486 1487 1487 1488 1488 1490 1490 1491 1491 1492 1493 1493 1493 1492 1493 1493 1493
1486 1485 1484 1483 1482 1481 1480 1479 1478 1478 1478 1478 1479 1479 1478 1478 1478 1478 1479 1479 1480 1481 1482 1482 1482 1483 1484 1485 1485 1486 1487 1487 1488 1489 1489 1490 1490 1490 1491 1490 1489 1489 1489
1484 1483 1482 1481 1480 1479 1478 1477 1476 1476 1476 1476 1477 1477 1477 1477 1476 1476 1477 1477 1477 1478 1479 1479 1480 1481 1482 1482 1483 1483 1484 1485 1486 1486 1487 1488 1488 1488 1489 1488 1487 1486 1485
1483 1482 1481 1480 1479 1478 1477 1475 1474 1474 1474 1474 1474 1474 1475 1475 1475 1475 1475 1475 1476 1476 1477 1477 1478 1478 1479 1480 1480 1481 1481 1482 1483 1484 1485 1485 1486 1486 1486 1486 1486 1484 1483
1482 1481 1479 1478 1477 1476 1475 1474 1473 1472 1472 1472 1472 1471 1472 1472 1472 1473 1472 1473 1474 1474 1474 1475 1475 1476 1476 1477 1477 1478 1479 1480 1481 1482 1482 1482 1483 1483 1484 1484 1484 1484 1481
1481 1479 1478 1477 1476 1475 1474 1473 1471 1471 1470 1470 1469 1469 1469 1469 1470 1470 1470 1471 1472 1472 1472 1472 1472 1473 1473 1474 1475 1475 1476 1477 1478 1479 1479 1480 1481 1481 1481 1481 1481 1481 1480
1480 1478 1477 1476 1474 1473 1472 1471 1469 1468 1467 1466 1466 1466 1466 1467 1467 1468 1468 1469 1470 1470 1470 1470 1470 1471 1471 1472 1472 1473 1474 1474 1475 1476 1476 1477 1478 1478 1478 1478 1478 1477 1477
1479 1478 1476 1474 1473 1471 1470 1469 1468 1467 1465 1464 1463 1463 1464 1464 1465 1466 1466 1467 1467 1468 1468 1468 1468 1469 1469 1470 1470 1470 1471 1472 1472 1473 1473 1474 1475 1475 1475 1475 1474 1474 1474
1478 1476 1474 1473 1471 1470 1469 1467 1467 1465 1464 1462 1462 1462 1462 1462 1463 1464 1464 1465 1465 1465 1466 1466 1466 1467 1467 1467 1468 1468 1469 1470 1470 1470 1471 1472 1472 1472 1472 1471 1471 1471 1471
1476 1474 1472 1471 1470 1469 1467 1466 1465 1464 1462 1461 1461 1460 1460 1460 1461 1462 1463 1463 1463 1464 1464 1464 1464 1465 1465 1465 1466 1466 1467 1468 1468 1468 1469 1469 1469 1469 1469 1469 1469 1468 1467
1474 1473 1471 1469 1468 1467 1466 1465 1463 1462 1461 1460 1460 1460 1459 1459 1460 1460 1460 1461 1461 1462 1462 1462 1462 1463 1463 1464 1464 1464 1465 1465 1466 1466 1467 1467 1467 1467 1467 1466 1466 1465 1464
1472 1471 1469 1467 1466 1465 1464 1463 1462 1461 1460 1459 1459 1459 1458 1458 1459 1459 1459 1459 1460 1460 1460 1460 1460 1461 1461 1462 1462 1462 1462 1463 1463 1463 1464 1464 1464 1464 1464 1464 1463 1463 1462
1471 1469 1468 1466 1465 1464 1463 1462 1461 1460 1459 1458 1458 1457 1457 1457 1457 1458 1458 1458 1458 1458 1458 1458 1459 1459 1460 1460 1460 1461 1461 1461 1461 1461 1461 1461 1461 1461 1461 1461 1461 1460 1459
1469 1467 1466 1464 1464 1462 1461 1460 1459 1458 1457 1457 1456 1456 1456 1455 1456 1456 1456 1457 1457 1457 1457 1457 1457 1457 1458 1458 1458 1459 1458 1459 1459 1459 1459 1459 1459 1459 1459 1458 1458 1457 1456
1468 1466 1464 1463 1462 1460 1459 1458 1457 1456 1456 1455 1455 1454 1454 1454 1454 1454 1455 1455 1455 1455 1455 1455 1455 1455 1456 1456 1457 1457 1456 1456 1457 1457 1457 1457 1457 1456 1456 1455 1454 1453 1453
1466 1464 1462 1461 1460 1459 1458 1456 1455 1455 1454 1454 1453 1453 1453 1453 1453 1453 1453 1453 1453 1453 1453 1453 1453 1454 1454 1455 1455 1455 1455 1454 1455 1455 1455 1455 1454 1454 1453 1452 1451 1451 1450
1463 1461 1460 1459 1458 1457 1456 1455 1454 1453 1453 1453 1452 1452 1451 1451 1451 1451 1451 1451 1451 1451 1451 1452 1452 1452 1453 1453 1454 1454 1453 1453 1452 1452 1452 1452 1452 1452 1451 1450 1449 1448 1448
1461 1460 1458 1457 1457 1456 1455 1453 1453 1453 1452 1451 1451 1450 1450 1450 1450 1450 1450 1450 1450 1450 1450 1450 1450 1451 1451 1452 1452 1452 1452 1452 1451 1451 1450 1450 1450 1449 1448 1447 1447 1446 1445
1459 1458 1457 1456 1455 1454 1453 1452 1452 1451 1451 1450 1449 1449 1449 1449 1448 1448 1448 1448 1448 1448 1448 1449 1449 1449 1450 1450 1451 1451 1450 1450 1450 1449 1449 1448 1448 1447 1446 1445 1445 1444 1443
1457 1456 1455 1454 1454 1453 1452 1451 1451 1450 1449 1448 1448 1447 1447 1447 1447 1447 1447 1447 1447 1447 1447 1447 1447 1448 1448 1448 1449 1448 1448 1448 1448 1447 1447 1446 1445 1445 1444 1443 1442 1441 1440
1456 1455 1454 1453 1452 1451 1450 1450 1449 1448 1447 1447 1447 1446 1446 1445 1445 1445 1446 1446 1446 1446 1446 1446 1446 1446 1446 1447 1447 1447 1446 1446 1446 1445 1444 1444 1443 1442 1442 1441 1440 1439 1438
1453 1453 1452 1451 1450 1449 1449 1448 1447 1446 1446 1445 1445 1445 1444 1444 1444 1443 1444 1444 1444 1445 1445 1445 1445 1445 1446 1445 1445 1445 1445 1444 1444 1443 1442 1442 1441 1440 1440 1439 1438 1438 1437